Orbital Elements at Epoch 2459200.5 (2020-Dec-17.0) TDB
Reference: JPL 22 (heliocentric ecliptic J2000)
Element | Value | Uncertainty (1-sigma) | Units |
e | .2040095148320221 | 2.5268e-08 | |
a | 2.335059743781995 | 6.2666e-09 | au |
q | 1.858685338349244 | 6.0164e-08 | au |
i | 2.908168381026806 | 4.07e-06 | deg |
node | 4.852385235197217 | 5.576e-05 | deg |
peri | 74.0290954803306 | 5.694e-05 | deg |
M | 316.8744226900377 | 1.1278e-05 | deg |
tp | 2459356.626938272345 (2021-May-22.12693827) | 4.111e-05 | TDB |
period | 1303.303081001545 3.57 | 5.2465e-06 1.436e-08 | d yr |
n | .2762212452711705 | 1.1119e-09 | deg/d |
Q | 2.811434149214746 | 7.5451e-09 | au |
|
| | Orbit Determination Parameters
Additional Information
|